Change the Weather History Date:

Sunday, February 3, 2013

  Actual Average (KAPN) Record (KAPN)
Temperature  
Mean Temperature 12 °F 19 °F  
Max Temperature 18 °F 27 °F 57 °F (1991)
Min Temperature 5 °F 10 °F -22 °F (1970)
Degree Days  
Heating Degree Days 54 46  
Month to date heating degree days 138  
Since 1 July heating degree days 4620  
Moisture  
Dew Point 4 °F    
Average Humidity 72    
Maximum Humidity 83    
Minimum Humidity 63    
Precipitation  
Precipitation 0.00 in 0.04 in 0.58 in (1938)
Month to date precipitation 0.13  
Year to date precipitation 1.79  
Snow  
Snow 0.00 in 0.70 in 4.90 in (1938)
Month to date snowfall 2.0  
Since 1 July snowfall 50.6  
Snow Depth -    
Sea Level Pressure  
Sea Level Pressure 29.86 in    
Wind  
Wind Speed 7 mph (SW)    
Max Wind Speed 15 mph    
Max Gust Speed 24 mph    
Visibility 8 miles    
Events Snow    
T = Trace of Precipitation, MM = Missing Value Source: NWS Daily Summary

Daily Weather History Graph

Daily Weather History Graph

Search for Another Location

Airport or City:

Trip Planner

Search our weather history database for the weather conditions in past years. The results will help you decide how hot, cold, wet, or windy it might be!

Date:

Astronomy

Feb. 03, 2013 Rise Set
Actual Time 7:53 AM EST 5:45 PM EST
Civil Twilight 7:21 AM EST 6:16 PM EST
Nautical Twilight 6:46 AM EST 6:52 PM EST
Astronomical Twilight 6:12 AM EST 7:26 PM EST
Moon 1:20 AM EST (2/3) 11:20 AM EST (2/3)
Length of Visible Light 10h 54m
Length of Day
9h 52m
Waning Gibbous, 49% of the Moon is Illuminated
Feb 3
Waning Gibbous
Feb 10
New
Feb 17
First Quarter
Feb 25
Full
Mar 4
Last Quarter

Hourly Weather History & Observations

Time (EST) Temp. Windchill Dew Point Humidity Pressure Visibility Wind Dir Wind Speed Gust Speed Precip Events Conditions
12:15 AM 8.2 °F -0.3 °F 1.0 °F 72% 29.99 in 10.0 mi WSW 4.6 mph - N/A   Clear
12:40 AM 8.6 °F -3.7 °F 1.2 °F 72% 29.98 in 10.0 mi WSW 8.1 mph - N/A   Clear
12:55 AM 8.6 °F -1.3 °F 1.4 °F 73% 29.98 in 10.0 mi WSW 5.8 mph - N/A   Clear
1:15 AM 8.6 °F -1.3 °F 1.4 °F 73% 29.98 in 10.0 mi SW 5.8 mph - N/A   Clear
1:35 AM 8.8 °F -1.1 °F 1.4 °F 72% 29.97 in 10.0 mi SW 5.8 mph - N/A   Clear
1:55 AM 8.4 °F -1.6 °F 1.2 °F 73% 29.96 in 10.0 mi SW 5.8 mph - N/A   Clear
2:16 AM 8.4 °F -2.8 °F 0.9 °F 71% 29.96 in 10.0 mi SW 6.9 mph - N/A   Scattered Clouds
2:35 AM 7.3 °F -1.3 °F -0.2 °F 71% 29.96 in 10.0 mi SW 4.6 mph - N/A   Scattered Clouds
2:55 AM 7.5 °F -1.1 °F -0.4 °F 70% 29.95 in 10.0 mi South 4.6 mph - N/A   Scattered Clouds
3:15 AM 7.5 °F 0.8 °F -0.6 °F 70% 29.94 in 10.0 mi South 3.5 mph - N/A   Mostly Cloudy
3:35 AM 5.5 °F -1.5 °F -1.3 °F 73% 29.93 in 10.0 mi SSW 3.5 mph - N/A   Scattered Clouds
3:55 AM 6.1 °F -2.8 °F -1.3 °F 72% 29.92 in 10.0 mi South 4.6 mph - N/A   Scattered Clouds
4:15 AM 7.3 °F 0.5 °F -0.4 °F 71% 29.91 in 10.0 mi South 3.5 mph - N/A   Overcast
4:35 AM 6.8 °F -0.1 °F -0.9 °F 71% 29.90 in 10.0 mi South 3.5 mph - N/A   Overcast
4:55 AM 7.5 °F 0.8 °F -0.0 °F 71% 29.89 in 10.0 mi WSW 3.5 mph - N/A   Overcast
5:15 AM 7.2 °F -3.0 °F -0.2 °F 72% 29.88 in 10.0 mi South 5.8 mph - N/A   Overcast
5:35 AM 8.4 °F -2.8 °F -0.4 °F 67% 29.88 in 10.0 mi SSW 6.9 mph - N/A   Overcast
5:56 AM 9.0 °F -3.2 °F -0.2 °F 66% 29.87 in 10.0 mi SSW 8.1 mph - N/A   Scattered Clouds
6:15 AM 9.1 °F -1.9 °F -0.0 °F 66% 29.87 in 10.0 mi SSW 6.9 mph - N/A   Mostly Cloudy
6:35 AM 9.1 °F -1.9 °F 0.3 °F 67% 29.87 in 10.0 mi SW 6.9 mph - N/A   Overcast
6:55 AM 9.5 °F -1.5 °F 0.3 °F 66% 29.86 in 10.0 mi SSW 6.9 mph - N/A   Overcast
7:15 AM 10.4 °F -2.4 °F 0.5 °F 64% 29.86 in 10.0 mi SSW 9.2 mph - N/A   Overcast
7:35 AM 10.4 °F -2.4 °F 0.5 °F 64% 29.85 in 10.0 mi South 9.2 mph - N/A   Overcast
7:55 AM 10.6 °F -3.1 °F 0.5 °F 64% 29.85 in 10.0 mi South 10.4 mph - N/A   Overcast
8:15 AM 10.9 °F -0.8 °F 0.5 °F 63% 29.84 in 10.0 mi South 8.1 mph - N/A   Overcast
8:35 AM 10.9 °F -1.8 °F 0.9 °F 64% 29.84 in 10.0 mi South 9.2 mph - N/A   Overcast
8:55 AM 11.1 °F -0.6 °F 1.8 °F 66% 29.85 in 10.0 mi South 8.1 mph - N/A   Overcast
9:15 AM 11.7 °F 1.1 °F 2.1 °F 66% 29.84 in 10.0 mi SSW 6.9 mph - N/A   Overcast
9:35 AM 12.2 °F 0.7 °F 2.8 °F 66% 29.84 in 10.0 mi SSW 8.1 mph - N/A   Overcast
9:55 AM 12.2 °F -0.2 °F 4.6 °F 72% 29.83 in 2.0 mi SSW 9.2 mph - N/A Snow Light Snow
10:15 AM 13.1 °F 0.9 °F 6.6 °F 75% 29.83 in 2.0 mi SSW 9.2 mph - N/A Snow Light Snow
10:35 AM 13.5 °F 1.3 °F 7.3 °F 77% 29.82 in 5.0 mi SSW 9.2 mph - N/A   Haze
10:56 AM 14.4 °F 1.6 °F 7.7 °F 75% 29.81 in 4.0 mi South 10.4 mph - N/A Snow Light Snow
11:15 AM 15.4 °F 3.0 °F 8.2 °F 73% 29.80 in 7.0 mi South 10.4 mph 16.1 mph N/A   Overcast
11:35 AM 16.0 °F 2.3 °F 8.2 °F 72% 29.79 in 10.0 mi South 12.7 mph - N/A   Overcast
11:55 AM 16.7 °F 4.5 °F 8.4 °F 70% 29.79 in 5.0 mi SSW 10.4 mph 18.4 mph N/A   Haze
12:15 PM 17.1 °F 5.0 °F 8.8 °F 70% 29.78 in 5.0 mi SW 10.4 mph - N/A   Haze
12:35 PM 17.1 °F 3.6 °F 8.4 °F 69% 29.77 in 4.0 mi SW 12.7 mph 16.1 mph N/A   Haze
12:55 PM 17.2 °F 5.2 °F 9.0 °F 70% 29.77 in 4.0 mi SSW 10.4 mph - N/A Snow Light Snow
1:15 PM 17.4 °F 6.2 °F 9.3 °F 71% 29.77 in 4.0 mi SSW 9.2 mph - N/A   Haze
1:35 PM 17.8 °F 5.2 °F 9.5 °F 70% 29.76 in 5.0 mi SW 11.5 mph - N/A Snow Light Snow
1:55 PM 18.5 °F 7.5 °F 10.4 °F 71% 29.76 in 5.0 mi SW 9.2 mph - N/A   Haze
2:15 PM 18.1 °F 6.3 °F 10.2 °F 71% 29.76 in 2.5 mi WSW 10.4 mph - N/A Snow Light Snow
2:35 PM 18.5 °F 7.5 °F 10.6 °F 71% 29.76 in 4.0 mi West 9.2 mph - N/A Snow Light Snow
2:55 PM 18.3 °F 11.5 °F 11.8 °F 76% 29.76 in 2.0 mi West 4.6 mph - N/A Snow Light Snow
3:16 PM 17.4 °F 9.1 °F 12.9 °F 83% 29.77 in 0.5 mi West 5.8 mph - N/A Snow Light Snow
3:35 PM 18.3 °F 4.6 °F 10.8 °F 72% 29.77 in 7.0 mi West 13.8 mph 19.6 mph N/A   Overcast
3:55 PM 18.5 °F 8.4 °F 9.1 °F 67% 29.78 in 10.0 mi West 8.1 mph 19.6 mph N/A   Overcast
4:15 PM 18.5 °F 6.1 °F 9.1 °F 67% 29.78 in 10.0 mi West 11.5 mph 19.6 mph N/A   Overcast
4:35 PM 18.1 °F 5.0 °F 9.3 °F 68% 29.79 in 7.0 mi West 12.7 mph 21.9 mph N/A   Overcast
4:55 PM 17.6 °F 3.2 °F 10.2 °F 73% 29.79 in 7.0 mi West 15.0 mph 20.7 mph N/A Snow Light Snow
5:35 PM 16.5 °F 4.3 °F 9.0 °F 72% 29.81 in 10.0 mi West 10.4 mph 18.4 mph N/A   Overcast
5:55 PM 15.8 °F 2.7 °F 9.0 °F 74% 29.81 in 10.0 mi West 11.5 mph 24.2 mph N/A   Mostly Cloudy
6:15 PM 15.4 °F 2.3 °F 9.0 °F 76% 29.82 in 10.0 mi WNW 11.5 mph 19.6 mph N/A   Mostly Cloudy
6:55 PM 14.9 °F 1.6 °F 8.6 °F 76% 29.84 in 10.0 mi West 11.5 mph 18.4 mph N/A   Overcast
7:15 PM 14.7 °F 3.8 °F 7.7 °F 74% 29.85 in 10.0 mi West 8.1 mph 18.4 mph N/A   Overcast
7:35 PM 14.5 °F 1.1 °F 7.5 °F 74% 29.86 in 10.0 mi West 11.5 mph 16.1 mph N/A   Overcast
7:55 PM 14.0 °F -0.2 °F 7.7 °F 76% 29.86 in 10.0 mi West 12.7 mph 20.7 mph N/A   Overcast
8:15 PM 12.9 °F -2.8 °F 6.4 °F 75% 29.87 in 10.0 mi West 15.0 mph 20.7 mph N/A   Scattered Clouds
8:35 PM 12.2 °F -1.8 °F 5.9 °F 76% 29.88 in 10.0 mi West 11.5 mph 18.4 mph N/A   Clear
8:55 PM 11.7 °F -1.7 °F 5.9 °F 78% 29.88 in 10.0 mi West 10.4 mph 18.4 mph N/A   Clear
9:15 PM 11.1 °F -1.6 °F 5.4 °F 78% 29.89 in 10.0 mi West 9.2 mph 18.4 mph N/A   Clear
9:35 PM 10.4 °F -0.4 °F 4.8 °F 78% 29.90 in 10.0 mi West 6.9 mph 17.3 mph N/A   Clear
9:55 PM 9.5 °F -3.5 °F 3.9 °F 78% 29.90 in 10.0 mi West 9.2 mph 16.1 mph N/A   Clear
10:15 PM 9.1 °F -4.0 °F 3.2 °F 77% 29.90 in 10.0 mi West 9.2 mph - N/A   Clear
10:35 PM 8.6 °F -3.7 °F 2.7 °F 77% 29.90 in 10.0 mi West 8.1 mph - N/A   Clear
10:55 PM 8.2 °F -4.1 °F 2.1 °F 76% 29.90 in 10.0 mi West 8.1 mph - N/A   Clear
11:15 PM 7.7 °F -3.7 °F 1.4 °F 75% 29.90 in 10.0 mi West 6.9 mph - N/A   Clear
11:35 PM 7.7 °F -3.7 °F 1.0 °F 74% 29.90 in 10.0 mi West 6.9 mph - N/A   Clear
11:55 PM 7.5 °F -5.0 °F 0.5 °F 73% 29.90 in 10.0 mi West 8.1 mph - N/A   Clear